Regional Weather Roundup
Issued by NWS

Home | Current Version | Previous Version | Graphics & Text | Print | Product List | Glossary On
Versions: 1 2 3 4 5 6 7 8 9 10 11 12 13 14 15 16 17 18 19 20 21 22 23 24 25 26 27 28 29 30 31 32 33 34 35 36 37 38 39 40 41 42 43 44 45 46 47 48 49 50
000
ASUS43 KDMX 061508
RWRIA

WEATHER ROUNDUP FOR IOWA
NATIONAL WEATHER SERVICE DES MOINES IA
900 AM CST SAT FEB 06 2016

NOTE: "FAIR" INDICATES FEW OR NO CLOUDS BELOW 12,000 FEET WITH NO
SIGNIFICANT WEATHER AND/OR OBSTRUCTIONS TO VISIBILITY.

* - THESE STATIONS ARE NOT NWS STATIONS...THUS NOT UNDER NWS
QUALITY CONTROL.  THEY ALSO DO NOT REPORT WEATHER SUCH
AS PRECIPITATION OR FOG.

IAZ001>003-012>014-020>022-031>034-043>046-061600-
   NORTHWEST IOWA

CITY           SKY/WX    TMP DP  RH WIND       PRES   REMARKS
CARROLL *      FOG       27  27 100 SW12      30.21S VSB 0   WCI  16
CHEROKEE *     FOG       27  27 100 S8        30.16F VSB 1/4 WCI  18
DENISON *      FOG       28  28 100 SW10      30.19S VSB 0   WCI  19
LE MARS *      SUNNY     19  19 100 S9        30.15F WCI   9
ORANGE CITY *  MOSUNNY   19  18  93 CALM      30.12F
SHELDON *      PTSUNNY   19  19 100 SE8       30.10F FOG     WCI   9
SIOUX CITY     CLOUDY    18  13  80 SE9       30.17F WCI   7
SPENCER        FOG       26  23  88 S10       30.13F VSB 1/4 WCI  16
STORM LAKE *   FOG       27  27 100 MISG      30.15F VSB 0
$$

IAZ055>058-069>071-079>083-090>094-061600-
   SOUTHWEST IOWA

CITY           SKY/WX    TMP DP  RH WIND       PRES   REMARKS
ATLANTIC *     FOG       28  28 100 W6        30.23F VSB 1/4 WCI  22
AUDUBON *      FOG       27  25  93 SW7       30.22F VSB 0   WCI  19
CLARINDA *     CLOUDY    32  30  93 NW8       30.29R WCI  25
COUNCIL BLFS * FOG       25  25 100 S7        30.24S VSB 0   WCI  17
CRESTON *      FOG       28  28 100 W6        30.25S VSB 1   WCI  22
HARLAN  *      FOG       28  28 100 SW9       30.26F VSB 0   WCI  20
LAMONI         CLOUDY    25  24  96 NW7       30.25S WCI  17
RED OAK *      CLOUDY    32  32 100 W5        30.26F FOG     WCI  27
SHENANDOAH *   FOG       28  28 100 CALM      30.28F VSB 1/4
$$

IAZ047>049-059>061-072>074-084-061600-
   CENTRAL IOWA

CITY           SKY/WX    TMP DP  RH WIND       PRES   REMARKS
AMES           CLOUDY    29  27  92 W9        30.22F FOG     WCI  20
ANKENY *       CLOUDY    30  30 100 W3        30.24S FOG
BOONE *        CLOUDY    28  27  93 W8G14     30.20S FOG     WCI  20
CHARITON *     PTSUNNY   27  25  93 W9        30.25R FOG     WCI  17
DES MOINES     CLOUDY    30  27  88 W9        30.24S FOG     WCI  22
GRINNELL*      CLOUDY    30  27  86 SW6       30.23S WCI  24
KNOXVILLE *    MOSUNNY   27  23  86 W7        30.23S WCI  19
MARSHALLTOWN   CLOUDY    29  27  92 SW7       30.21S FOG     WCI  22
NEWTON *       CLOUDY    30  30 100 SW6       30.23S WCI  24
PELLA *        MOSUNNY   28  25  86 W5        30.26R WCI  23
$$

IAZ004>006-015-016-023>025-035-036-061600-
   NORTH CENTRAL IOWA

CITY           SKY/WX    TMP DP  RH WIND       PRES   REMARKS
ALGONA *       FOG       25  25 100 SW14      30.16S VSB 0   WCI  13
CLARION *      FOG       27  27 100 SW10      30.18F VSB 3/4 WCI  17
ESTHERVILLE    FOG       24  24 100 S13       30.12F VSB 3/4 WCI  12
FORT DODGE *   CLOUDY    27  23  86 SW9       30.19F VSB 1/4 WCI  17
MASON CITY     FOG       25  25 100 SW13      30.18S VSB 1/4 WCI  14
FOREST CITY *  FOG       27  27 100 SW9       30.16S VSB 1/4 WCI  17
WEBSTER CITY * CLOUDY    27  27 100 SW9       30.18F WCI  17
IOWA FALLS *   CLOUDY    28  27  93 W9        30.21R FOG     WCI  20
$$

IAZ007>011-017>019-026>030-037>042-050>054-066-061600-
   NORTHEAST IOWA

CITY           SKY/WX    TMP DP  RH WIND       PRES   REMARKS
CEDAR RAPIDS   CLOUDY    29  25  85 SW5       30.23R WCI  24
CHARLES CITY * CLOUDY    27  27 100 SW9       30.18F FOG     WCI  17
CLINTON *      SUNNY     32  26  78 SW7       30.26R WCI  26
DECORAH *      CLOUDY    27  27 100 SW7G14    30.16F WCI  19
DUBUQUE        CLOUDY    29  26  89 W9        30.21S WCI  20
MONTICELLO *   CLOUDY    30  28  93 W8        30.23S WCI  23
OELWEIN *      CLOUDY    28  28 100 W12       30.20F FOG     WCI  18
WATERLOO       CLOUDY    29  26  89 SW12      30.21S WCI  19
$$

IAZ064-065-067-068-078-061600-
   EAST CENTRAL IOWA

CITY           SKY/WX    TMP DP  RH WIND       PRES   REMARKS
DAVENPORT      SUNNY     31  22  69 SW9       30.25F WCI  23
IOWA CITY      CLOUDY    28  22  78 SW5       30.27R WCI  23
MT. PLEASANT * SUNNY     32  25  74 SW7       30.25F WCI  26
MUSCATINE *    SUNNY     32  23  69 SW9       30.27R WCI  24
QUAD CITIES    SUNNY     33  23  66 CALM      30.25S
$$

IAZ062-063-075>077-085>089-095>099-061600-
   SOUTHEAST IOWA

CITY           SKY/WX    TMP DP  RH WIND       PRES   REMARKS
BURLINGTON     SUNNY     30  24  78 SW6       30.25F WCI  24
FAIRFIELD *    SUNNY     28  21  74 SW6       30.25R WCI  22
FORT MADISON * SUNNY     32  23  69 S7        30.26F WCI  26
KEOKUK *       SUNNY     34  23  64 SW6       30.26F WCI  29
OSKALOOSA *    CLOUDY    27  23  86 SW3       30.25R
CENTERVILLE *    N/A    N/A N/A N/A MISG        N/A
OTTUMWA        MOSUNNY   28  23  81 SW3       30.25R
WASHINGTON *   SUNNY     28  25  86 W6        30.27R WCI  22
$$

ABBREVIATIONS USED IN REMARKS
   TC - TEMPERATURES IN CELSIUS
  WCI - WIND CHILL INDEX
   HX - HEAT INDEX
  VSB - VISIBILITY
$$




USA.gov is the U.S. government's official web portal to all federal, state and local government web resources and services.